Regional Weather Roundup
Issued by NWS

Home | Current Version | Previous Version | Graphics & Text | Print | Product List | Glossary On
Versions: 1 2 3 4 5 6 7 8 9 10 11 12 13 14 15 16 17 18 19 20 21 22 23 24 25 26 27 28 29 30 31 32 33 34 35 36 37 38 39 40 41 42 43 44 45 46 47 48 49 50
000
ASUS43 KLSX 010759
RWRMO

WEATHER SUMMARY FOR MISSOURI
NATIONAL WEATHER SERVICE SPRINGFIELD MO
300 AM CDT MON SEP 01 2014

NOTE: "FAIR" INDICATES FEW OR NO CLOUDS BELOW 12,000 FEET WITH NO
       SIGNIFICANT WEATHER AND/OR OBSTRUCTIONS TO VISIBILITY.
       CURRENT SKY AND/OR WEATHER CONDITIONS ARE NOT AVAILABLE FOR
       CHILLICOTHE AND FARMINGTON.

MOZ001>031-035>038-043-044-053-054-010900-
...NORTHERN AND WESTERN MISSOURI...

CITY           SKY/WX    TMP DP  RH WIND       PRES   REMARKS
KANSAS CTY INT TSTM      66  64  93 S15       29.89R
KANSAS C DTWN  RAIN      69  66  90 SW13      29.90R FOG
ST JOSEPH      RAIN      67  65  93 S15       29.82R
CHILLICOTHE      N/A     67  65  93 S14G22    29.83F
KIRKSVILLE     LGT RAIN  69  67  93 SW12      29.82F

$$
MOZ066>068-077>081-088>096-101>105-010900-
...SOUTHWEST MISSOURI...

CITY           SKY/WX    TMP DP  RH WIND       PRES   REMARKS
SPRINGFIELD    CLOUDY    77  70  79 NE6       29.91F
JOPLIN         CLOUDY    80  69  69 SE8       29.87F

$$
MOZ032>034-039>042-045>050-055>058-069>072-010900-
...CENTRAL MISSOURI...

CITY           SKY/WX    TMP DP  RH WIND       PRES   REMARKS
COLUMBIA       CLOUDY    69  66  90 W7        29.89F
JEFFERSON CITY CLOUDY    71  64  78 NW3       29.88F
ROLLA          CLOUDY    74  70  87 S10       29.88F
SEDALIA        LGT RAIN  68  66  93 E3        29.87F
WHITEMAN AFB   MOCLDY    66  66 100 SE6       29.86F
OSAGE BEACH    CLOUDY    73  61  64 NW8       29.91S

$$
MOZ051-052-059>065-010900-
...EAST CENTRAL MISSOURI...

CITY           SKY/WX    TMP DP  RH WIND       PRES   REMARKS
ST LOUIS INTL  PTCLDY    78  71  79 S10       29.89F
SPIRIT OF STL  PTCLDY    76  71  85 SW5       29.87F
ST CHARLES     PTCLDY    75  71  87 S10       29.85F

$$
MOZ072>076-082>087-097>100-106>115-010900-
...SOUTH CENTRAL AND SOUTHEAST MISSOURI...

CITY           SKY/WX    TMP DP  RH WIND       PRES   REMARKS
CAPE GIRARDEAU CLEAR     75  72  90 S13       29.94F
FARMINGTON     MOCLDY    72  70  94 SW7       29.96R
POPLAR BLUFF   CLOUDY    75  70  84 S7        29.94S
WEST PLAINS    MOCLDY    73  70  90 CALM      29.96R

$$


USA.gov is the U.S. government's official web portal to all federal, state and local government web resources and services.